User: anonymous   Login
Location: Caltech
(34.1382°N, 118.1253°W)
Time: 15:13:29
(UTC-07:00)
Language:

Cosmos 1408 Rocket - Orbit

View from above orbital plane
View from above orbital plane
View from above satellite
View from above satellite

Ground track
Ground track

The orbit data is extracted from the following two-line orbital elements,

1 13553U 82092B   17114.90591802 +.00000173 +00000-0 +17720-4 0  9998
2 13553 082.5664 283.7170 0020451 217.6076 304.1858 14.84116853869136
Epoch (UTC): 24 April 2017 21:44:31
Eccentricity: 0.0020451
inclination: 82.5664°
perigee height: 602 km
apogee height: 630 km
right ascension of ascending node: 283.7170°
argument of perigee: 217.6076°
revolutions per day: 14.84116853
mean anomaly at epoch: 304.1858°
orbit number at epoch: 86913

The dashed part of the orbit path shows where the satellite is in the earth's shadow,  

DLR